[Iaude] MPEC R49: 2019 RE1 [a=1.54,e=0.37,i=4.3,H=28.9]

mpec at marsden.cfa.harvard.edu mpec at marsden.cfa.harvard.edu
Fri Sep 6 04:20:07 EDT 2019


M.P.E.C. 2019-R49                                Issued 2019 September 6, 08:18 UT  

     The Minor Planet Electronic Circulars contain information on unusual
         minor planets and routine data on comets.  They are published
    on behalf of Division F of the International Astronomical Union by the
          Minor Planet Center, Smithsonian Astrophysical Observatory,
                          Cambridge, MA 02138, U.S.A.

             Prepared using the Tamkin Foundation Computer Network

                              MPC at CFA.HARVARD.EDU
            URL https://www.minorplanetcenter.net/    ISSN 1523-6714

                                    2019 RE1                                    


Observations:
     K19R01E* C2019 09 05.31135 22 50 41.41 -03 09 11.1          20.1 GVER049G96
     K19R01E  C2019 09 05.32226 22 50 54.45 -03 04 29.1          20.1 GVER049G96
     K19R01E  C2019 09 05.32772 22 51 00.89 -03 02 09.7                VER049G96
     K19R01E  C2019 09 05.44301 22 53 16.87 -02 13 54.0          20.6 GVER049G96
     K19R01E  C2019 09 05.44359 22 53 17.57 -02 13 40.4          20.4 GVER049G96
     K19R01E  C2019 09 05.44417 22 53 18.24 -02 13 26.5                VER049G96
     K19R01E  C2019 09 05.44475 22 53 18.95 -02 13 11.6          20.0 GVER049G96
     K19R01E pC2019 09 05.90143123 02 52.52 +00 34 59.8          20.6 GVER049L01
     K19R01E KC2019 09 05.90226623 02 53.33 +00 35 16.6          20.6 GVER049L01
     K19R01E KC2019 09 05.90477323 02 55.71 +00 36 07.4          20.6 GVER049L01
     K19R01E KC2019 09 05.90729023 02 58.11 +00 36 58.1          20.8 GVER049L01
     K19R01E KC2019 09 05.90907623 02 59.79 +00 37 34.3          20.6 GVER049L01
     K19R01E KC2019 09 06.20782123 08 02.25 +02 13 14.8          20.9 VuER049H21
     K19R01E KC2019 09 06.21190523 08 05.60 +02 14 28.3          20.8 VuER049H21
     K19R01E KC2019 09 06.21660223 08 09.42 +02 15 52.8          20.9 VuER049H21
     K19R01E KC2019 09 06.22020923 08 12.34 +02 16 57.3          20.7 VuER049H21

Observer details:
G96 Mt. Lemmon Survey.  Observer H. Groeller.  Measurers B. M. Africano, E. J. 
   Christensen, G. A. Farneth, D. C. Fuls, A. R. Gibbs, A. D. Grauer, H. 
   Groeller, R. A. Kowalski, S. M. Larson, G. J. Leonard, T. A. Pruyne, D. 
   Rankin, R. L. Seaman, F. C. Shelly.  1.5-m reflector + 10K CCD.
H21 Astronomical Research Observatory, Westfield.  Observer R. Holmes.  
    Measurers S. Foglia, L. Buzzi, T. Linder, R. Holmes.  0.76-m f/3.0 
   astrograph + CCD.
L01 Visnjan Observatory, Tican.  Observers K. Korlevic, A. Radica.  Measurer K. 
   Korlevic.  1.0-m f/2.9 reflector + CCD.

Orbital elements:
2019 RE1                                                 Earth MOID = 0.0058 AU
Epoch 2019 Apr. 27.0 TT = JDT 2458600.5                 Veres
M 307.72263              (2000.0)            P               Q
n   0.51416509     Peri.  326.48820     +0.61541309     +0.78783592
a   1.5431246      Node   341.45702     -0.70549335     +0.53693547
e   0.3670157      Incl.    4.34798     -0.35149092     +0.30168670
P   1.92           H   28.9           G   0.15           U   7
Residuals in seconds of arc
190905 G96  0.4-  0.0     190905 G96  0.0   0.1+    190906 H21  0.2+  0.1-
190905 G96  0.7+  0.5+    190905 L01  0.4-  0.5+    190906 H21  0.3+  0.1-
190905 G96  0.2+  0.5-    190905 L01  0.2-  0.3+    190906 H21  0.1+  0.1-
190905 G96  0.1-  0.4+    190905 L01  0.1-  0.2+    190906 H21  0.2-  0.3-
190905 G96  0.0   0.3-    190905 L01  0.1+  0.1-
190905 G96  0.3-  0.6-    190905 L01  0.0   0.1-

Ephemeris:
2019 RE1                 a,e,i = 1.54, 0.37, 4                   q = 0.9768
Date    TT    R. A. (2000) Decl.     Delta      r    Elong.  Phase     V
2019 08 07    12 36 40.0 -27 13 13   0.1114  0.9768    67.4   106.6    28.1
...
2019 08 22    13 05 20.3 -32 57 06   0.04912 0.9901    62.7   114.8    26.8
...
2019 08 30    14 48 16.3 -46 21 10   0.01719 1.0070    79.6    99.4    23.7
...
2019 09 05    22 43 00.9 -05 26 59   0.01523 1.0237   177.0     3.0    20.2
2019 09 06    23 04 27.4 +01 12 52   0.01873 1.0268   171.8     8.0    20.9
2019 09 07    23 18 57.7 +05 42 18   0.02252 1.0299   167.1    12.6    21.5
...
2019 09 13    23 54 46.9 +16 10 31   0.04746 1.0506   158.2    20.9    23.4
...
2019 09 21    00 07 41.5 +19 23 05   0.08297 1.0822   159.2    19.3    24.6
...
2019 10 06    00 14 32.5 +19 48 09   0.1569  1.1512   163.3    14.5    26.0

A. U. Tomatic                (C) Copyright 2019 MPC           M.P.E.C. 2019-R49




More information about the Iaude mailing list